Flag for Brazil

Past Weather in Sorocaba, São Paulo, Brazil — Yesterday and Last 2 Weeks

Now
86 °F

Clear.


Feels Like: 87 °F
Forecast: 87 / 66 °F
Wind: 16 mph from Southeast

Location: Campinas Aeroporto
Current Time: Sep 29, 2020 at 6:14:44 pm
Latest Report: Sep 29, 2020 at 5:00 pm
Visibility: 6 mi
Pressure29.98 "Hg(28.01 "Hg at 602m altitude)
Humidity: 46%
Dew Point: 63 °F
Location of SorocabaLocation

Past Weather in Sorocaba — Graph

°F

Sorocaba Temperature Yesterday

Maximum temperature yesterday: 97 °F (at 2:00 pm)
Minimum temperature yesterday: 72 °F (at 4:00 am)
Average temperature yesterday: 79 °F

High & Low Weather Summary for the Past Weeks

 TemperatureHumidityPressure
High97 °F (Sep 27, 2:00 pm)94% (Sep 22, 6:00 am)30.24 "Hg (Sep 22, 6:00 am)
Low57 °F (Sep 22, 6:00 am)13% (Sep 27, 2:00 pm)29.86 "Hg (Sep 17, 3:00 pm)
Average74 °F56%30.05 "Hg
* Reported Sep 14 5:00 pm — Sep 29 5:00 pm, Sorocaba. Weather by CustomWeather, © 2020

Note: Actual official high and low records may vary slightly from our data, if they occured in-between our weather recording intervals... More about our weather records

Sorocaba Weather History for the Previous 24 Hours

Scroll right to see more
 ConditionsComfort  
Time TempWeatherWind HumidityBarometerVisibility
5:00 pm
Tue, Sep 29
86 °FClear.16 mph46%29.98 "Hg6 mi
4:00 pm90 °FSunny.12 mph36%29.98 "Hg10 mi
3:00 pm90 °FPassing clouds.10 mph36%29.98 "HgN/A
2:00 pm90 °FSunny.10 mph36%30.01 "Hg10 mi
1:00 pm88 °FPassing clouds.12 mph40%30.04 "HgN/A
12:00 pm86 °FPassing clouds.13 mph43%30.07 "HgN/A
11:00 am82 °FPassing clouds.15 mph51%30.07 "HgN/A
10:00 am79 °FClear.15 mph58%30.09 "Hg6 mi
9:00 am75 °FClear.21 mph65%30.09 "Hg4 mi
8:00 am72 °FClear.18 mph69%30.07 "Hg4 mi
7:00 am70 °FHaze.16 mph73%30.04 "Hg3 mi
6:00 am68 °FHaze.15 mph78%30.01 "Hg3 mi
5:00 am70 °FClear.15 mph73%29.98 "Hg10 mi
4:00 am70 °FClear.10 mph69%29.98 "Hg10 mi
3:00 am70 °FClear.10 mph69%29.98 "Hg10 mi
2:00 am70 °FClear.8 mph73%29.98 "Hg10 mi
1:00 am70 °FClear.6 mph73%30.01 "Hg10 mi
12:00 am73 °FClear.7 mph65%30.04 "Hg10 mi
11:00 pm
Mon, Sep 28
73 °FPassing clouds.8 mph61%30.04 "HgN/A
10:00 pm73 °FPassing clouds.14 mph61%30.01 "HgN/A
9:00 pm75 °FPassing clouds.14 mph57%30.01 "HgN/A
8:00 pm75 °FPassing clouds.16 mph57%29.95 "HgN/A
7:00 pm77 °FPassing clouds.10 mph54%29.95 "HgN/A
6:00 pm79 °FHaze.17 mph48%29.95 "Hg3 mi
Weather by CustomWeather, © 2020

See weather overview